カタログに戻る

METEOR 2-9

運用中気象PO
NORAD 13718·PAYLOAD·🇷🇺 Russia

打ち上げ Dec 14, 1982 から Plesetsk Cosmodrome

Loading…

次のパス (今後24時間)

TLE

最新Source: Space-Track

元期: Sep 14, 2026, 10:30 UTC

1 13718U 82116A   26257.43813589 -.00000019  00000-0 -16205-4 0  9991
2 13718  81.2463 259.5935 0054191  66.0999 294.5839 14.15956058259003

AllMySatでMETEOR 2-9をリアルタイム追跡

Download on the App Store